CEB6862 RPLL-RPLC

Flight info

Callsign CEB6862
Flight time 0h 17m
Altitude 7500
Route RPPL HARBO1 31 VOTAS EDLEX LC02C LC02D RPLC
Aircraft AT76/M-SDFGIRY/S/C

Departure

Time 2026-04-21 05:02
Airport Ninoy Aquino International Airport (RPLL)

Arrival

Time 2026-04-21 05:19
Airport Clark International Airport / Clark Air Base (RPLC)
Time Latitude Longitude Altitude Speed Heading
2026-04-21 04:28 14.50666 121.01006 53 ft 0 kts
2026-04-21 04:47 14.50652 121.01001 50 ft 3 kts 45°
2026-04-21 04:47 14.50644 121.00988 48 ft 0 kts 84°
2026-04-21 04:54 14.50645 121.00994 51 ft 2 kts 88°
2026-04-21 04:55 14.50638 121.01004 53 ft 1 kts 129°
2026-04-21 04:55 14.50632 121.01010 53 ft 1 kts 139°
2026-04-21 04:55 14.50627 121.01013 54 ft 0 kts 142°
2026-04-21 04:55 14.50624 121.01016 55 ft 1 kts 141°
2026-04-21 04:56 14.50617 121.01022 55 ft 2 kts 141°
2026-04-21 04:56 14.50608 121.01031 55 ft 2 kts 137°
2026-04-21 04:56 14.50598 121.01043 55 ft 0 kts 116°
2026-04-21 04:56 14.50596 121.01052 55 ft 1 kts 103°
2026-04-21 04:57 14.50599 121.01056 55 ft 2 kts 71°
2026-04-21 04:57 14.50613 121.01082 54 ft 7 kts 59°
2026-04-21 04:57 14.50651 121.01139 53 ft 12 kts 56°
2026-04-21 04:57 14.50697 121.01219 49 ft 14 kts 61°
2026-04-21 04:58 14.50738 121.01302 47 ft 14 kts 60°
2026-04-21 04:58 14.50794 121.01390 45 ft 16 kts 59°
2026-04-21 04:58 14.50848 121.01489 40 ft 16 kts 60°
2026-04-21 04:58 14.50906 121.01593 34 ft 17 kts 60°
2026-04-21 04:59 14.50959 121.01686 27 ft 13 kts 59°
2026-04-21 04:59 14.50974 121.01712 28 ft 0 kts 59°
2026-04-21 05:00 14.50974 121.01713 28 ft 2 kts 59°
2026-04-21 05:00 14.51049 121.01760 25 ft 5 kts 323°
2026-04-21 05:01 14.51060 121.01750 25 ft 0 kts 316°
2026-04-21 05:01 14.51066 121.01744 25 ft 13 kts 315°
2026-04-21 05:01 14.51365 121.01433 29 ft 104 kts 315°
2026-04-21 05:02 14.51966 121.00785 407 ft 135 kts 313°
2026-04-21 05:02 14.52595 121.00094 1197 ft 133 kts 312°
2026-04-21 05:02 14.53225 120.99333 1758 ft 148 kts 309°
2026-04-21 05:02 14.53963 120.98480 2294 ft 168 kts 317°
2026-04-21 05:03 14.54862 120.97590 2640 ft 190 kts 319°
2026-04-21 05:03 14.55829 120.96667 3119 ft 192 kts 318°
2026-04-21 05:03 14.56792 120.95716 3644 ft 192 kts 318°
2026-04-21 05:03 14.57757 120.94753 4117 ft 194 kts 319°
2026-04-21 05:04 14.58738 120.93790 4645 ft 194 kts 319°
2026-04-21 05:04 14.59694 120.92829 5131 ft 193 kts 318°
2026-04-21 05:04 14.60641 120.91858 5632 ft 195 kts 315°
2026-04-21 05:04 14.61583 120.90841 6089 ft 197 kts 315°
2026-04-21 05:05 14.62586 120.89890 6490 ft 195 kts 332°
2026-04-21 05:05 14.63916 120.89567 6741 ft 204 kts 356°
2026-04-21 05:05 14.65392 120.89408 6840 ft 221 kts 355°
2026-04-21 05:05 14.66969 120.89219 6897 ft 235 kts 354°
2026-04-21 05:06 14.68624 120.88966 6900 ft 245 kts 352°
2026-04-21 05:06 14.70303 120.88643 6914 ft 251 kts 349°
2026-04-21 05:06 14.71863 120.87841 6911 ft 255 kts 321°
2026-04-21 05:06 14.73137 120.86547 6939 ft 258 kts 314°
2026-04-21 05:07 14.74373 120.85174 6936 ft 263 kts 313°
2026-04-21 05:07 14.75622 120.83790 6920 ft 265 kts 314°
2026-04-21 05:07 14.76909 120.82426 6919 ft 264 kts 316°
2026-04-21 05:07 14.78216 120.81095 6924 ft 263 kts 316°
2026-04-21 05:08 14.79512 120.79770 6933 ft 262 kts 316°
2026-04-21 05:08 14.80811 120.78445 6929 ft 262 kts 316°
2026-04-21 05:08 14.82028 120.77209 6810 ft 223 kts 316°
2026-04-21 05:08 14.82722 120.76510 6706 ft 199 kts 316°
2026-04-21 05:09 14.83661 120.75565 6563 ft 182 kts 317°
2026-04-21 05:09 14.84577 120.74639 6449 ft 187 kts 316°
2026-04-21 05:09 14.85510 120.73680 6319 ft 191 kts 316°
2026-04-21 05:09 14.86456 120.72702 6168 ft 193 kts 316°
2026-04-21 05:10 14.87710 120.71389 5975 ft 194 kts 316°
2026-04-21 05:10 14.88360 120.70720 5878 ft 196 kts 317°
2026-04-21 05:10 14.89328 120.69744 5706 ft 197 kts 317°
2026-04-21 05:10 14.90297 120.68749 5579 ft 195 kts 316°
2026-04-21 05:11 14.91258 120.67760 5469 ft 195 kts 317°
2026-04-21 05:11 14.92223 120.66773 5324 ft 194 kts 317°
2026-04-21 05:11 14.93178 120.65790 5174 ft 194 kts 317°
2026-04-21 05:11 14.94135 120.64806 5027 ft 194 kts 317°
2026-04-21 05:12 14.95087 120.63823 4876 ft 194 kts 317°
2026-04-21 05:12 14.96042 120.62843 4714 ft 193 kts 317°
2026-04-21 05:12 14.96995 120.61867 4560 ft 192 kts 317°
2026-04-21 05:12 14.97944 120.60898 4398 ft 191 kts 317°
2026-04-21 05:13 14.98892 120.59937 4260 ft 191 kts 317°
2026-04-21 05:13 14.99831 120.58984 4113 ft 192 kts 317°
2026-04-21 05:13 15.00810 120.57988 3832 ft 199 kts 317°
2026-04-21 05:13 15.01807 120.56987 3612 ft 201 kts 318°
2026-04-21 05:14 15.02765 120.56022 3362 ft 184 kts 317°
2026-04-21 05:14 15.03646 120.55122 3134 ft 175 kts 316°
2026-04-21 05:14 15.04476 120.54250 3011 ft 165 kts 316°
2026-04-21 05:14 15.05250 120.53431 2983 ft 153 kts 317°
2026-04-21 05:15 15.05963 120.52674 2961 ft 143 kts 316°
2026-04-21 05:15 15.06680 120.51962 2945 ft 142 kts 328°
2026-04-21 05:15 15.07610 120.51855 2979 ft 136 kts 18°
2026-04-21 05:15 15.08540 120.52172 2845 ft 144 kts 24°
2026-04-21 05:16 15.09462 120.52536 2619 ft 138 kts 25°
2026-04-21 05:16 15.10290 120.52878 2409 ft 119 kts 25°
2026-04-21 05:16 15.11031 120.53185 2211 ft 111 kts 26°
2026-04-21 05:16 15.11728 120.53472 1961 ft 109 kts 25°
2026-04-21 05:17 15.12442 120.53772 1670 ft 112 kts 25°
2026-04-21 05:17 15.13171 120.54079 1392 ft 113 kts 25°
2026-04-21 05:17 15.13886 120.54372 1206 ft 105 kts 24°
2026-04-21 05:17 15.14539 120.54640 1062 ft 96 kts 23°
2026-04-21 05:18 15.15167 120.54887 989 ft 97 kts 21°
2026-04-21 05:18 15.15816 120.55122 920 ft 103 kts 21°
2026-04-21 05:18 15.16473 120.55372 824 ft 100 kts 24°
2026-04-21 05:18 15.17108 120.55653 720 ft 99 kts 22°
2026-04-21 05:19 15.17737 120.55902 510 ft 95 kts 23°
2026-04-21 05:19 15.18284 120.56124 450 ft 59 kts 20°
2026-04-21 05:19 15.18539 120.56232 442 ft 35 kts 19°
2026-04-21 05:19 15.18755 120.56309 435 ft 31 kts 17°
2026-04-21 05:20 15.18939 120.56380 426 ft 26 kts 26°
2026-04-21 05:20 15.19095 120.56418 424 ft 21 kts 339°
2026-04-21 05:20 15.19137 120.56348 423 ft 11 kts 290°
2026-04-21 05:20 15.19167 120.56266 428 ft 13 kts 290°
2026-04-21 05:21 15.19203 120.56173 426 ft 15 kts 292°
2026-04-21 05:21 15.19235 120.56081 429 ft 13 kts 285°
2026-04-21 05:21 15.19292 120.56028 429 ft 10 kts 335°
2026-04-21 05:21 15.19339 120.55990 429 ft 8 kts 299°
2026-04-21 05:22 15.19341 120.55935 433 ft 8 kts 253°
2026-04-21 05:22 15.19319 120.55877 426 ft 9 kts 246°
2026-04-21 05:22 15.19289 120.55811 428 ft 11 kts 244°
2026-04-21 05:22 15.19240 120.55764 433 ft 9 kts 198°
2026-04-21 05:23 15.19185 120.55742 429 ft 8 kts 201°
2026-04-21 05:23 15.19130 120.55722 429 ft 8 kts 200°
2026-04-21 05:23 15.19073 120.55701 431 ft 9 kts 202°
2026-04-21 05:23 15.19013 120.55676 434 ft 9 kts 202°
2026-04-21 05:24 15.18950 120.55651 434 ft 10 kts 200°
2026-04-21 05:24 15.18885 120.55623 430 ft 10 kts 201°
2026-04-21 05:24 15.18817 120.55598 424 ft 11 kts 198°
2026-04-21 05:24 15.18749 120.55571 435 ft 11 kts 201°
2026-04-21 05:25 15.18679 120.55543 435 ft 11 kts 200°
2026-04-21 05:25 15.18613 120.55511 428 ft 9 kts 233°
2026-04-21 05:25 15.18616 120.55452 430 ft 9 kts 290°
2026-04-21 05:25 15.18637 120.55392 435 ft 9 kts 289°
2026-04-21 05:26 15.18661 120.55328 434 ft 10 kts 294°
2026-04-21 05:26 15.18674 120.55262 434 ft 10 kts 248°
2026-04-21 05:26 15.18620 120.55224 437 ft 9 kts 219°
2026-04-21 05:26 15.18618 120.55175 437 ft 7 kts 286°
2026-04-21 05:27 15.18630 120.55121 434 ft 7 kts 258°
2026-04-21 05:27 15.18596 120.55090 438 ft 5 kts 192°
2026-04-21 05:27 15.18561 120.55088 430 ft 5 kts 192°
2026-04-21 05:27 15.18523 120.55075 427 ft 7 kts 198°
2026-04-21 05:28 15.18481 120.55055 439 ft 6 kts 211°
2026-04-21 05:28 15.18440 120.55028 439 ft 8 kts 213°
2026-04-21 05:28 15.18390 120.55002 439 ft 8 kts 203°
2026-04-21 05:28 15.18334 120.54982 430 ft 9 kts 193°
2026-04-21 05:29 15.18276 120.54963 430 ft 9 kts 207°
2026-04-21 05:29 15.18220 120.54935 441 ft 9 kts 205°
2026-04-21 05:29 15.18160 120.54911 431 ft 9 kts 195°
2026-04-21 05:29 15.18098 120.54895 434 ft 8 kts 198°
2026-04-21 05:30 15.18086 120.54884 442 ft 0 kts 234°
2026-04-21 05:31 15.18070 120.54865 434 ft 7 kts 230°
2026-04-21 05:31 15.18066 120.54856 436 ft 0 kts 247°
2026-04-21 05:32 15.18064 120.54830 440 ft 5 kts 274°
2026-04-21 05:32 15.18057 120.54805 436 ft 0 kts 248°